TimeMST,TemperatureF,Dew PointF,Humidity,Sea Level PressureIn,VisibilityMPH,Wind Direction,Wind SpeedMPH,Gust SpeedMPH,PrecipitationIn,Events,Conditions,WindDirDegrees,DateUTC
12:54 AM,39.9,35.1,83,29.66,10.0,WSW,15.0,-,0.17,Rain,Light Rain,240,2013-11-08 07:54:00
1:54 AM,39.0,30.0,70,29.64,10.0,WSW,17.3,-,0.00,,Overcast,240,2013-11-08 08:54:00
2:54 AM,37.9,27.0,65,29.68,10.0,WSW,17.3,-,N/A,,Scattered Clouds,250,2013-11-08 09:54:00
3:54 AM,37.0,25.0,62,29.69,10.0,West,17.3,24.2,N/A,,Overcast,270,2013-11-08 10:54:00
4:54 AM,36.0,27.0,70,29.70,10.0,West,6.9,-,N/A,,Overcast,270,2013-11-08 11:54:00
5:54 AM,37.9,25.0,60,29.70,10.0,West,18.4,-,N/A,,Overcast,270,2013-11-08 12:54:00
6:54 AM,36.0,24.1,62,29.73,10.0,WNW,9.2,-,N/A,,Mostly Cloudy,290,2013-11-08 13:54:00
7:54 AM,33.1,25.0,72,29.76,10.0,West,4.6,-,N/A,,Clear,260,2013-11-08 14:54:00
8:54 AM,39.9,26.1,58,29.77,10.0,West,6.9,-,N/A,,Mostly Cloudy,280,2013-11-08 15:54:00
9:54 AM,43.0,26.1,51,29.77,10.0,West,18.4,25.3,N/A,,Clear,280,2013-11-08 16:54:00
10:54 AM,44.1,26.1,49,29.79,10.0,West,23.0,32.2,N/A,,Clear,270,2013-11-08 17:54:00
11:54 AM,44.1,27.0,51,29.81,10.0,West,19.6,28.8,N/A,,Partly Cloudy,260,2013-11-08 18:54:00
12:54 PM,45.0,26.1,48,29.82,10.0,West,25.3,32.2,N/A,,Mostly Cloudy,270,2013-11-08 19:54:00
1:54 PM,46.0,24.1,42,29.82,10.0,WNW,20.7,28.8,N/A,,Overcast,290,2013-11-08 20:54:00
2:54 PM,45.0,25.0,46,29.85,10.0,West,17.3,25.3,N/A,,Overcast,280,2013-11-08 21:54:00
3:54 PM,45.0,26.1,48,29.87,10.0,West,25.3,38.0,N/A,,Overcast,260,2013-11-08 22:54:00
4:54 PM,41.0,26.1,55,29.90,10.0,West,17.3,-,N/A,,Overcast,260,2013-11-08 23:54:00
5:54 PM,39.9,27.0,60,29.91,10.0,WSW,19.6,-,N/A,,Overcast,240,2013-11-09 00:54:00
6:54 PM,39.0,27.0,62,29.94,10.0,SW,13.8,-,N/A,,Overcast,230,2013-11-09 01:54:00
7:54 PM,36.0,25.0,64,29.98,10.0,SW,9.2,-,N/A,,Overcast,220,2013-11-09 02:54:00
8:54 PM,37.0,23.0,57,29.98,10.0,WSW,15.0,-,N/A,,Overcast,250,2013-11-09 03:54:00
9:54 PM,36.0,23.0,59,30.02,10.0,WNW,9.2,-,N/A,,Overcast,300,2013-11-09 04:54:00
10:54 PM,34.0,25.0,70,30.04,10.0,WSW,8.1,-,N/A,,Overcast,240,2013-11-09 05:54:00
11:54 PM,33.1,27.0,78,30.06,10.0,West,8.1,-,N/A,,Overcast,270,2013-11-09 06:54:00